Location: Le Moustier
(44.1000°N, 6.5167°E)
Time: 22:30:27
(UTC+00:00)

Thor Agena Rocket - Pass Details

Date: 13 December 2025
Orbit: 754 x 802 km, 99.1° (Epoch: 21 January)

Event Time Altitude Azimuth Distance (km) Brightness Sun altitude
Rises 16:51:41 0° 166° (SSE) 3,282 6.9 -9.7°
Reaches altitude 10° 16:54:01 10° 168° (SSE) 2,351 6.2 -10.1°
Maximum altitude 16:59:13 81° 255° (WSW) 801 3.7 -11.0°
Drops below altitude 10° 17:04:23 10° 343° (NNW) 2,337 6.0 -11.8°
Sets 17:06:41 0° 345° (NNW) 3,262 6.7 -12.2°
